ATLAS 5 CENTAUR DEB, 44677

Orbit data source: Space-Track

ATLAS 5 CENTAUR DEB, 44677 is space debris in HEO originally from a launch on Wed, 17 Oct 2018 UTC launched from the Air Force Eastern Test Range (AFETR). Debris objects in space refer to the collection of defunct objects orbiting the Earth. Examples of debris include non-operational satellites, rocket bodies, and fragments generated from explosions, collisions, or faulty payload assembly.

Loading next visibility...
Identifier
44677, 2018-079AP
Orbit
HEO
Country
Flag of USUS
Related business
Flag of USUnited Launch Alliance/Lockheed Martin (US)
Manufacturer
ULA Decatur
Mission
Spacecraft
Bus & Motor
Unknown
Mass
Unknown
Launch date (UTC)
2018-10-17 (7 years ago)
Launch vehicle
Unknown
Launch site
Air Force Eastern Test Range (AFETR)
Object type
Payload
Rocket body
Debris
Shape & HBR
Unknown shape, 1.1 m
Radar Cross Section
RCS unknown

Expand to show TLE details & history
Last TLE update: 4 months ago

TLE from 4 months ago
0 ATLAS 5 CENTAUR DEB
1 44677U 18079AP  25229.84496275 -.00000141  00000-0  00000-0 0  9995
2 44677  12.6095  79.7246 4431861 224.5089  89.9343  1.78530791 40365
Epoch: 2025-08-17T20:16Z
TLE epoch observation values (Epoch: 2025-08-17T20:16:44.781Z)
Latitude
-0°
Longitude
169.15752°
Altitude
27,346.761 km
Speed
3.123 km/s
True Right ascension
05h 19m 12s
True Declination
0° 00' 00"
Sunlit
Object was in daylight at epoch
Visualization orbit readout
Latitude
Unknown
Longitude
Unknown
Altitude
Unknown
Speed
Unknown
Apparent Right ascension
Unknown
Apparent Declination
Unknown
Sunlit
N/A
Visualization observer readout
Local Sidereal Time
13:26:13
Azimuth
Unknown
Elevation
Unknown
Doppler factor
Unknown
Orbital elements
Apogee altitude
35,048.431 km
Perigee altitude
9,605.171 km
Semi-major axis
28,704.938 km
Eccentricity
0.44319
Inclination
12.6095°
RAAN
79.7246°
Arg. of periapsis
224.5089°
True anomaly
135.5027°
Mean anomaly
89.9343°
Eccentric anomaly
113.26267°
Mean motion
0.44628 °/min
Orbital period
806.67 mins
BSTAR
0
Loading maneuver chart data...
Computing Atmospheric mass density...

Documentation

Showing up to 5 results
|